Location: Dalton
(34.7700°N, 84.9700°W)
Time: 21:48:15
(UTC-04:00)

Vanguard 2 - Visible Passes

Search period start: 18 July 2018 00:00
Search period end: 28 July 2018 00:00
Orbit: 553 x 2939 km, 32.9° (Epoch: 18 July)

Date Brightness Start Highest point End Pass type
(mag) Time Alt. Az. Time Alt. Az. Time Alt. Az.
18 Jul 9.8 00:58:33 10° W 01:16:09 68° SSW 01:19:50 55° SSE visible
18 Jul 10.7 03:13:17 10° W 03:21:09 26° WSW 03:21:09 26° WSW visible
18 Jul 10.4 20:52:17 10° WSW 21:08:16 78° SSE 21:25:59 10° E visible
18 Jul 10.2 23:03:51 10° W 23:21:49 83° S 23:34:20 21° ESE visible
19 Jul 9.9 01:17:02 10° W 01:34:11 59° SSW 01:35:40 57° S visible
19 Jul 11.1 03:32:40 10° W 03:36:59 17° W 03:36:59 17° W visible
19 Jul 10.4 21:10:27 10° WSW 21:26:40 82° S 21:44:21 10° E visible
19 Jul 10.2 23:22:15 10° W 23:40:12 79° SSW 23:50:15 30° ESE visible
20 Jul 10.1 01:35:36 10° W 01:51:35 50° SW 01:51:35 50° SW visible
20 Jul 11.4 03:52:53 10° W 03:52:55 10° W 03:52:55 10° W visible
20 Jul 10.4 21:28:42 10° W 21:45:07 84° S 22:02:42 10° E visible
20 Jul 10.1 23:40:38 10° W 23:58:30 73° SSW 00:06:13 40° SE visible
21 Jul 10.4 01:54:20 10° W 02:07:33 39° SW 02:07:33 39° SW visible
21 Jul 10.4 21:46:59 10° W 22:03:35 84° S 22:20:56 10° E visible
21 Jul 10.1 23:59:02 10° W 00:16:42 66° SSW 00:22:16 48° SSE visible
22 Jul 10.8 02:13:19 10° W 02:23:36 29° WSW 02:23:36 29° WSW visible
22 Jul 10.3 22:05:17 10° W 22:22:01 81° S 22:37:00 17° ESE visible
23 Jul 10.1 00:17:29 10° W 00:34:45 57° SSW 00:38:21 51° S visible
23 Jul 11.1 02:32:47 10° W 02:39:41 21° WSW 02:39:41 21° WSW visible
23 Jul 10.3 22:23:36 10° W 22:40:24 77° SSW 22:53:08 24° ESE visible
24 Jul 10.3 00:36:02 10° W 00:52:41 48° SSW 00:54:29 47° SSW visible
24 Jul 11.4 02:53:09 10° W 02:55:50 13° WSW 02:55:50 13° WSW visible
24 Jul 10.3 22:41:55 10° W 22:58:43 71° SSW 23:09:19 31° SE visible
25 Jul 10.5 00:54:46 10° W 01:10:29 40° SW 01:10:40 40° SW visible
25 Jul 10.4 20:49:15 10° W 21:03:54 83° S 21:22:05 10° E visible
25 Jul 10.4 23:00:16 10° W 23:16:54 63° SSW 23:25:33 36° SE visible
26 Jul 10.8 01:13:49 10° W 01:26:55 31° SW 01:26:55 31° SW visible
26 Jul 10.4 21:07:29 10° W 21:22:18 80° S 21:40:24 10° ESE visible
26 Jul 10.4 23:18:40 10° W 23:34:59 55° SSW 23:41:50 39° SSE visible
27 Jul 11.1 01:33:24 10° W 01:43:12 23° WSW 01:43:12 23° WSW visible
27 Jul 10.4 21:25:43 10° W 21:40:39 74° SSW 21:56:49 15° ESE visible
